Location: Peach Mountain Observatory
(42.3967°N, 83.9367°W)
Time: 20:54:53
(UTC-05:00)

Vanguard 1 Rocket - Pass Details

Date: 29 January 2020
Orbit: 650 x 4226 km, 34.3° (Epoch: 21 February)

Event Time Altitude Azimuth Distance (km) Brightness Sun altitude
Rises 07:07:06 0° 185° (S) 3,142 10.3 -8.8°
Reaches altitude 10° 07:12:06 10° 141° (SE) 2,666 10.8 -7.9°
Maximum altitude 07:12:50 10° 133° (SE) 2,731 11.0 -7.7°
Drops below altitude 10° 07:13:37 10° 127° (SE) 2,834 11.3 -7.6°
Sets 07:20:46 0° 88° (E) 4,711 12.6 -6.3°
